FW2593 Gharb MT current weather conditions

sailwx.info

Wind from 316 at 6 knots gusting 11

Air temperature 13.3° C
Dewpoint 12.1° C

Last reported at 2020-Jan-28 22:05 UTC.
Time now 2020-Jan-28 22:53 UTC

Location: N 36°03' E 014°13'.
View on Google Maps.

See reports from other nearby stations

  
Tides and Currents Weather Stations Pressure Air Temp Water Temp Dewpoint Dewpoint Depression Visibility Wind Speed Wind Dir Waves Ship Positions
date/time (UTC)wind fromknots sea level pressurealtimeterstation pressurevisibilityair tempwater tempwave heightnotes
2020-Jan-28 22:05 316 6 gusting 11 13.3
2020-Jan-28 22:01 317 6 gusting 11 13.3
2020-Jan-28 21:50 301 5 gusting 9 13.3
2020-Jan-28 21:47 306 5 gusting 9 13.3
2020-Jan-28 21:40 340 4 gusting 12 13.3
2020-Jan-28 21:35 310 6 gusting 13 13.3
2020-Jan-28 21:33 327 7 gusting 13 13.3
2020-Jan-28 21:25 316 6 gusting 13 13.9
2020-Jan-28 21:20 313 8 gusting 13 13.9
2020-Jan-28 21:18 298 6 gusting 13 13.9
2020-Jan-28 21:10 312 5 gusting 11 13.9
2020-Jan-28 21:05 321 5 gusting 13 13.9
2020-Jan-28 21:01 289 6 gusting 13 13.9
2020-Jan-28 20:50 297 6 gusting 13 13.9
2020-Jan-28 20:47 290 5 gusting 13 13.9
2020-Jan-28 20:40 338 6 gusting 15 13.9
2020-Jan-28 20:35 284 7 gusting 15 13.9
2020-Jan-28 20:25 296 5 gusting 13 13.9
2020-Jan-28 20:20 306 5 gusting 9 13.9
2020-Jan-28 20:17 300 4 gusting 11 13.9
2020-Jan-28 20:10 267 5 gusting 13 13.9
2020-Jan-28 20:05 296 5 gusting 13 13.9
2020-Jan-28 20:02 288 3 gusting 11 13.9
2020-Jan-28 19:50 305 5 gusting 13 13.9
2020-Jan-28 19:46 286 3 gusting 10 13.9
2020-Jan-28 19:40 304 3 gusting 8 13.9
2020-Jan-28 19:35 206 1 gusting 9 13.9
2020-Jan-28 19:31 334 0 gusting 11 13.9
2020-Jan-28 19:25 244 2 gusting 11 13.9
2020-Jan-28 19:20 296 3 gusting 11 13.9
2020-Jan-28 19:15 294 3 gusting 11 13.9
2020-Jan-28 19:10 306 4 gusting 9 13.9
2020-Jan-28 19:05 280 1 gusting 11 13.9
2020-Jan-28 19:00 252 2 gusting 11 13.9
2020-Jan-28 18:50 318 2 gusting 9 13.9
2020-Jan-28 18:47 285 1 gusting 9 13.9
2020-Jan-28 18:40 242 0 gusting 8 13.9
2020-Jan-28 18:35 341 1 gusting 9 13.9
2020-Jan-28 18:31 275 3 gusting 9 13.9
2020-Jan-28 18:25 294 3 gusting 10 13.9
2020-Jan-28 18:20 311 3 gusting 11 13.9
2020-Jan-28 18:15 219 4 gusting 11 13.9
2020-Jan-28 18:10 294 5 gusting 11 13.9
2020-Jan-28 18:05 294 2 gusting 9 13.9
2020-Jan-28 18:00 334 2 gusting 9 13.9
2020-Jan-28 17:50 227 2 gusting 9 13.9
2020-Jan-28 17:46 294 1 gusting 11 13.9
2020-Jan-28 17:40 279 6 gusting 11 13.9
2020-Jan-28 17:35 303 2 gusting 10 13.9
2020-Jan-28 17:32 257 3 gusting 10 13.9
2020-Jan-28 17:25 280 4 gusting 10 13.9
2020-Jan-28 17:20 296 2 gusting 11 13.9
2020-Jan-28 17:16 280 4 gusting 11 13.9
2020-Jan-28 17:10 272 2 gusting 8 13.9
2020-Jan-28 17:05 264 0 gusting 9 13.9
2020-Jan-28 17:01 313 3 gusting 9 13.9
2020-Jan-28 16:50 292 3 gusting 9 13.9
2020-Jan-28 16:45 229 0 gusting 8 13.9
2020-Jan-28 16:40 061 3 gusting 10 13.9
2020-Jan-28 16:35 263 3 gusting 10 13.9
2020-Jan-28 16:30 266 3 gusting 8 14.4
2020-Jan-28 16:25 291 2 gusting 9 14.4
2020-Jan-28 16:20 254 1 gusting 9 14.4
2020-Jan-28 16:15 318 3 gusting 9 14.4
2020-Jan-28 16:10 254 2 gusting 10 14.4
2020-Jan-28 16:05 263 4 gusting 12 14.4
2020-Jan-28 16:01 338 4 gusting 9 14.4
2020-Jan-28 15:50 277 4 gusting 13 14.4
2020-Jan-28 15:45 296 2 gusting 13 14.4
2020-Jan-28 15:40 269 4 gusting 10 15.0
2020-Jan-28 15:35 230 2 gusting 10 15.0
2020-Jan-28 15:25 292 2 gusting 9 15.0
2020-Jan-28 15:20 284 3 gusting 7 15.0
2020-Jan-28 15:10 294 1 gusting 10 15.0
2020-Jan-28 15:05 284 5 gusting 10 15.0
2020-Jan-28 14:50 322 3 gusting 10 15.6
2020-Jan-28 14:40 294 2 gusting 12 15.6
2020-Jan-28 14:35 269 4 gusting 12 15.6
2020-Jan-28 14:25 234 5 gusting 12 15.6
2020-Jan-28 14:20 303 3 gusting 10 15.6
2020-Jan-28 14:10 265 4 gusting 10 15.6
2020-Jan-28 14:05 262 1 gusting 13 15.6
2020-Jan-28 13:50 184 4 gusting 11 16.1
2020-Jan-28 13:40 315 3 gusting 10 16.1
2020-Jan-28 13:35 273 2 gusting 7 16.1
2020-Jan-28 13:30 293 1 gusting 10 16.1
2020-Jan-28 13:25 226 3 gusting 13 15.6
2020-Jan-28 13:20 233 5 gusting 13 15.6
2020-Jan-28 13:15 290 4 gusting 11 15.6
2020-Jan-28 13:10 302 4 gusting 12 15.6
2020-Jan-28 13:05 273 4 gusting 13 15.6
2020-Jan-28 12:50 292 6 gusting 13 16.1
2020-Jan-28 12:40 315 2 gusting 12 16.1
2020-Jan-28 12:35 267 6 gusting 12 15.6
2020-Jan-28 12:25 234 2 gusting 10 16.1
2020-Jan-28 12:20 269 4 gusting 10 16.1
2020-Jan-28 12:15 291 4 gusting 9 16.7
2020-Jan-28 12:10 298 4 gusting 9 17.2
2020-Jan-28 12:05 294 2 gusting 13 16.7
2020-Jan-28 12:00 276 6 gusting 13 16.1
2020-Jan-28 11:51 290 2 gusting 12 16.1
2020-Jan-28 11:47 240 4 gusting 10 16.1
2020-Jan-28 11:40 278 4 gusting 10 16.1
2020-Jan-28 11:36 245 3 gusting 10 16.1
2020-Jan-28 11:32 298 3 gusting 13 16.7
2020-Jan-28 11:26 291 6 gusting 13 16.1
2020-Jan-28 11:20 318 4 gusting 9 16.1
2020-Jan-28 11:16 300 2 gusting 11 16.1
2020-Jan-28 11:11 294 5 gusting 9 16.1
2020-Jan-28 11:05 258 3 gusting 11 16.1
2020-Jan-28 11:01 307 5 gusting 11 16.7
2020-Jan-28 10:56 289 6 gusting 11 16.1
2020-Jan-28 10:51 284 3 gusting 11 16.7
2020-Jan-28 10:47 306 6 gusting 11 16.1
2020-Jan-28 10:41 287 6 gusting 10 16.1
2020-Jan-28 10:35 279 5 gusting 11 16.1
2020-Jan-28 10:32 319 5 gusting 10 16.1
2020-Jan-28 10:21 304 4 gusting 10 15.6
2020-Jan-28 10:17 296 6 gusting 11 15.6
2020-Jan-28 10:11 307 6 gusting 11 15.6
2020-Jan-28 10:05 320 6 gusting 11 16.1
2020-Jan-28 10:02 298 6 gusting 11 15.6
2020-Jan-28 09:56 332 6 gusting 12 15.6
2020-Jan-28 09:50 278 6 gusting 12 15.6
2020-Jan-28 09:47 280 6 gusting 11 15.6
2020-Jan-28 09:41 298 6 gusting 11 15.6
2020-Jan-28 09:35 290 5 gusting 11 15.6
2020-Jan-28 09:32 296 6 gusting 11 15.6
2020-Jan-28 09:21 306 6 gusting 12 15.6
2020-Jan-28 09:16 327 6 gusting 10 15.6
2020-Jan-28 09:11 289 5 gusting 10 15.0
2020-Jan-28 09:06 323 6 gusting 10 15.0
2020-Jan-28 09:03 298 6 gusting 11 15.0
2020-Jan-28 08:56 306 6 gusting 11 14.4
2020-Jan-28 08:50 294 5 gusting 10 14.4
2020-Jan-28 08:46 299 6 gusting 12 15.0
2020-Jan-28 08:41 295 6 gusting 12 15.0
2020-Jan-28 08:36 303 6 gusting 13 14.4
2020-Jan-28 08:32 319 6 gusting 13 14.4
2020-Jan-28 08:20 296 6 gusting 13 14.4
2020-Jan-28 08:17 315 5 gusting 12 14.4
2020-Jan-28 08:10 298 5 gusting 11 14.4
2020-Jan-28 08:05 323 6 gusting 11 14.4
2020-Jan-28 08:02 303 5 gusting 10 14.4
2020-Jan-28 07:55 306 5 gusting 10 14.4
2020-Jan-28 07:50 309 6 gusting 12 14.4
2020-Jan-28 07:46 313 6 gusting 12 14.4
2020-Jan-28 07:41 313 5 gusting 10 13.9
2020-Jan-28 07:35 337 6 gusting 10 13.9
2020-Jan-28 07:31 296 4 gusting 8 13.9
2020-Jan-28 07:20 314 5 gusting 9 13.9
2020-Jan-28 07:16 303 5 gusting 9 13.9
2020-Jan-28 07:10 302 5 gusting 9 13.9
2020-Jan-28 07:05 329 3 gusting 11 13.3
2020-Jan-28 07:00 323 4 gusting 11 13.3
2020-Jan-28 06:55 313 4 gusting 9 13.3
2020-Jan-28 06:50 323 4 gusting 9 13.3
2020-Jan-28 06:46 310 5 gusting 9 13.3
2020-Jan-28 06:40 311 6 gusting 9 13.3
2020-Jan-28 06:35 314 6 gusting 11 13.3
2020-Jan-28 06:32 298 5 gusting 9 12.8
2020-Jan-28 06:20 325 4 gusting 7 12.8
2020-Jan-28 06:15 315 3 gusting 8 12.8
2020-Jan-28 06:10 313 3 gusting 9 12.8
2020-Jan-28 06:05 313 6 gusting 9 12.8
2020-Jan-28 06:01 315 4 gusting 7 12.8
2020-Jan-28 05:55 319 4 gusting 12 12.8
2020-Jan-28 05:50 328 4 gusting 12 12.8
2020-Jan-28 05:46 323 4 gusting 8 12.8
2020-Jan-28 05:41 313 4 gusting 8 12.8
2020-Jan-28 05:35 340 4 gusting 8 12.8
2020-Jan-28 05:30 325 4 gusting 9 12.8
2020-Jan-28 05:20 333 7 gusting 10 12.8
2020-Jan-28 05:16 332 6 gusting 9 12.8
2020-Jan-28 05:10 326 4 gusting 9 12.8
2020-Jan-28 05:01 322 5 gusting 8 12.8
2020-Jan-28 04:55 310 4 gusting 7 12.8
2020-Jan-28 04:50 333 5 gusting 9 12.8
2020-Jan-28 04:46 323 5 gusting 9 12.8
2020-Jan-28 04:40 325 4 gusting 9 12.8
2020-Jan-28 04:35 314 4 gusting 10 12.8
2020-Jan-28 04:30 314 5 gusting 10 12.8
2020-Jan-28 04:20 306 5 gusting 8 12.8
2020-Jan-28 04:10 296 4 gusting 8 12.8
2020-Jan-28 04:05 310 5 gusting 8 12.8
2020-Jan-28 03:50 298 5 gusting 7 12.8
2020-Jan-28 03:45 303 4 gusting 9 12.8
2020-Jan-28 03:40 315 6 gusting 9 12.8
2020-Jan-28 03:35 296 6 gusting 8 12.8
2020-Jan-28 03:20 306 6 gusting 11 12.8
2020-Jan-28 03:10 315 6 gusting 8 12.8
2020-Jan-28 03:05 320 4 gusting 7 12.8
2020-Jan-28 02:56 325 2 gusting 8 12.8
2020-Jan-28 02:50 313 4 gusting 8 12.8
2020-Jan-28 02:40 316 5 gusting 9 12.8
2020-Jan-28 02:35 319 5 gusting 9 12.8
2020-Jan-28 02:32 334 4 gusting 9 12.8
2020-Jan-28 02:20 313 5 gusting 10 12.8
2020-Jan-28 02:17 332 4 gusting 8 12.8
2020-Jan-28 02:10 317 4 gusting 10 12.8
2020-Jan-28 02:05 337 5 gusting 10 12.8
2020-Jan-28 02:01 317 4 gusting 10 12.8
2020-Jan-28 01:55 313 5 gusting 10 12.8
2020-Jan-28 01:50 330 6 gusting 9 12.8
2020-Jan-28 01:46 314 6 gusting 9 12.8
2020-Jan-28 01:40 323 6 gusting 9 12.8
2020-Jan-28 01:35 329 5 gusting 8 12.8
2020-Jan-28 01:31 324 5 gusting 10 12.8
2020-Jan-28 01:20 305 5 gusting 8 12.8
2020-Jan-28 01:17 317 4 gusting 8 12.8
2020-Jan-28 01:10 318 4 gusting 8 12.8
2020-Jan-28 01:05 325 6 gusting 11 12.8
2020-Jan-28 01:01 329 6 gusting 11 12.8
2020-Jan-28 00:55 332 5 gusting 10 12.8
2020-Jan-28 00:50 311 6 gusting 10 12.8
2020-Jan-28 00:45 317 4 gusting 9 13.3
2020-Jan-28 00:40 321 3 gusting 8 13.3
2020-Jan-28 00:35 318 5 gusting 8 12.8
2020-Jan-28 00:30 293 4 gusting 11 12.8
2020-Jan-28 00:20 322 4 gusting 9 12.8
2020-Jan-28 00:15 314 6 gusting 8 12.8
2020-Jan-28 00:05 312 3 gusting 7 12.8
2020-Jan-28 00:00 317 4 gusting 7 12.8
2020-Jan-27 23:55 323 3 gusting 8 12.8
2020-Jan-27 23:50 317 4 gusting 8 12.8
2020-Jan-27 23:45 311 4 gusting 7 12.8
2020-Jan-27 23:36 325 4 gusting 8 12.8
2020-Jan-27 23:32 301 4 gusting 7 12.8
2020-Jan-27 23:21 313 4 gusting 8 12.8
2020-Jan-27 23:17 320 4 gusting 8 12.8
2020-Jan-27 23:10 316 5 gusting 8 12.8
2020-Jan-27 23:05 342 4 gusting 8 12.8
2020-Jan-27 23:01 318 3 gusting 8 12.8
2020-Jan-27 22:55 320 5 gusting 9 12.8
2020-Jan-27 22:50 284 6 gusting 9 12.8
2020-Jan-27 22:46 317 5 gusting 10 12.8
2020-Jan-27 22:40 323 6 gusting 10 12.8
2020-Jan-27 22:36 298 4 gusting 9 12.8
2020-Jan-27 22:32 327 3 gusting 7 12.8
2020-Jan-27 22:20 317 1 gusting 9 12.8
2020-Jan-27 22:16 314 3 gusting 9 12.8
2020-Jan-27 22:10 321 6 gusting 9 12.8
2020-Jan-27 22:05 329 6 gusting 9 12.8
2020-Jan-27 21:55 323 3 gusting 8 12.8
2020-Jan-27 21:50 317 6 gusting 8 12.8
2020-Jan-27 21:40 319 5 gusting 9 12.8
2020-Jan-27 21:30 296 5 gusting 11 12.8
2020-Jan-27 21:20 322 4 gusting 9 12.8
2020-Jan-27 21:17 327 5 gusting 9 12.8
2020-Jan-27 21:06 319 6 gusting 10 12.8
2020-Jan-27 21:02 313 6 gusting 10 12.8
2020-Jan-27 20:55 292 6 gusting 11 12.8
2020-Jan-27 20:46 322 7 gusting 12 13.3
2020-Jan-27 20:41 303 6 gusting 10 13.3
2020-Jan-27 20:35 335 6 gusting 13 13.3
2020-Jan-27 20:31 319 7 gusting 13 13.3
2020-Jan-27 20:20 328 7 gusting 13 13.3
2020-Jan-27 20:15 328 6 gusting 13 13.3
2020-Jan-27 20:10 319 7 gusting 11 13.3
2020-Jan-27 20:05 313 6 gusting 11 13.3
2020-Jan-27 20:00 318 7 gusting 11 13.3
2020-Jan-27 19:50 328 6 gusting 12 13.3
2020-Jan-27 19:45 326 6 gusting 12 13.3
2020-Jan-27 19:40 319 7 gusting 12 13.3
2020-Jan-27 19:35 321 7 gusting 12 13.3
2020-Jan-27 19:30 306 6 gusting 10 13.3
2020-Jan-27 19:20 310 5 gusting 12 13.3
2020-Jan-27 19:15 319 6 gusting 12 13.3
2020-Jan-27 19:10 313 6 gusting 13 13.3
2020-Jan-27 19:05 319 7 gusting 13 13.3
2020-Jan-27 18:55 339 6 gusting 13 13.3
2020-Jan-27 18:51 337 6 gusting 12 13.3
2020-Jan-27 18:47 324 7 gusting 12 13.3
2020-Jan-27 18:41 329 7 gusting 12 13.3
2020-Jan-27 18:36 326 7 gusting 13 13.3
2020-Jan-27 18:31 331 8 gusting 13 13.3
2020-Jan-27 18:25 320 8 gusting 13 13.3
2020-Jan-27 18:17 332 6 gusting 12 13.3
2020-Jan-27 18:10 336 7 gusting 12 13.3
2020-Jan-27 18:05 315 6 gusting 11 13.3
2020-Jan-27 18:02 316 5 gusting 12 13.3
2020-Jan-27 17:55 316 6 gusting 12 13.3
2020-Jan-27 17:50 323 6 gusting 15 13.3
2020-Jan-27 17:47 311 6 gusting 15 13.3
2020-Jan-27 17:40 304 8 gusting 13 13.3
2020-Jan-27 17:35 320 6 gusting 12 13.3
2020-Jan-27 17:30 323 7 gusting 13 13.3
2020-Jan-27 17:25 326 7 gusting 11 13.3
2020-Jan-27 17:15 323 5 gusting 12 13.3
2020-Jan-27 17:10 333 6 gusting 12 13.3
2020-Jan-27 17:05 321 6 gusting 11 13.3
2020-Jan-27 17:00 340 6 gusting 11 13.3
2020-Jan-27 16:55 329 6 gusting 9 13.3
2020-Jan-27 16:50 315 5 gusting 11 13.3
2020-Jan-27 16:46 319 6 gusting 11 13.3
2020-Jan-27 16:40 319 5 gusting 11 13.3
2020-Jan-27 16:35 295 5 gusting 11 13.3
2020-Jan-27 16:30 315 6 gusting 11 13.3
2020-Jan-27 16:25 319 5 gusting 11 13.9
2020-Jan-27 16:15 299 7 gusting 11 13.9
2020-Jan-27 16:10 316 6 gusting 10 13.9
2020-Jan-27 16:05 326 6 gusting 11 13.9
2020-Jan-27 16:00 333 5 gusting 13 13.9
2020-Jan-27 15:55 340 6 gusting 13 13.9
2020-Jan-27 15:50 309 8 gusting 12 13.9
2020-Jan-27 15:45 342 6 gusting 11 14.4
2020-Jan-27 15:40 313 6 gusting 13 14.4
2020-Jan-27 15:35 317 8 gusting 13 14.4
2020-Jan-27 15:30 335 7 gusting 13 14.4
2020-Jan-27 15:25 349 6 gusting 12 14.4
2020-Jan-27 15:15 323 7 gusting 11 15.0
2020-Jan-27 15:10 317 6 gusting 13 15.0
2020-Jan-27 15:00 322 6 gusting 13 15.0
2020-Jan-27 14:55 350 8 gusting 12 15.0
2020-Jan-27 14:50 309 7 gusting 13 15.0
2020-Jan-27 14:45 329 7 gusting 13 15.0
2020-Jan-27 14:40 316 7 gusting 12 15.0
2020-Jan-27 14:35 322 5 gusting 12 15.0
2020-Jan-27 14:25 328 8 gusting 13 15.0
2020-Jan-27 14:16 327 6 gusting 12 15.0
2020-Jan-27 14:10 327 8 gusting 14 15.0
2020-Jan-27 14:05 331 8 gusting 14 15.0
2020-Jan-27 13:55 333 8 gusting 13 15.6
2020-Jan-27 13:50 360 7 gusting 13 15.6
2020-Jan-27 13:40 343 5 gusting 11 15.6
2020-Jan-27 13:35 304 6 gusting 13 15.6
2020-Jan-27 13:25 322 7 gusting 13 15.6
2020-Jan-27 13:16 330 6 gusting 11 15.6
2020-Jan-27 13:10 322 7 gusting 11 15.6
2020-Jan-27 13:05 348 6 gusting 12 15.6
2020-Jan-27 13:00 337 7 gusting 12 15.6
2020-Jan-27 12:55 331 6 gusting 11 15.6
2020-Jan-27 12:45 329 7 gusting 12 15.6
2020-Jan-27 12:40 316 7 gusting 13 15.6
2020-Jan-27 12:35 336 8 gusting 13 15.6
2020-Jan-27 12:30 013 8 gusting 13 15.6
2020-Jan-27 12:25 335 7 gusting 13 16.1
2020-Jan-27 12:16 334 6 gusting 12 16.1
2020-Jan-27 12:10 338 6 gusting 12 16.1
2020-Jan-27 12:05 323 4 gusting 11 16.1
2020-Jan-27 11:55 341 7 gusting 13 15.6
2020-Jan-27 11:50 295 6 gusting 12 15.6
2020-Jan-27 11:40 333 8 gusting 13 15.6
2020-Jan-27 11:35 317 7 gusting 11 15.6
2020-Jan-27 11:30 316 6 gusting 11 15.6
2020-Jan-27 11:15 320 6 gusting 10 15.6
2020-Jan-27 11:10 345 5 gusting 10 15.6
2020-Jan-27 11:05 337 5 gusting 11 15.6
2020-Jan-27 10:55 310 6 gusting 11 15.6
2020-Jan-27 10:50 315 4 gusting 10 15.6
2020-Jan-27 10:45 337 6 gusting 10 15.6
2020-Jan-27 10:40 005 6 gusting 10 16.1
2020-Jan-27 10:35 330 4 gusting 10 16.1
2020-Jan-27 10:25 338 3 gusting 11 15.6
2020-Jan-27 10:15 348 6 gusting 11 15.6
2020-Jan-27 10:10 337 5 gusting 11 15.6
2020-Jan-27 10:05 317 6 gusting 11 15.6
2020-Jan-27 09:55 355 6 gusting 11 15.6
2020-Jan-27 09:50 335 5 gusting 12 15.6
2020-Jan-27 09:45 005 5 gusting 9 15.6
2020-Jan-27 09:35 325 8 gusting 12 15.0
2020-Jan-27 09:32 326 6 gusting 13 15.0
2020-Jan-27 09:25 323 8 gusting 13 15.0
2020-Jan-27 09:20 351 6 gusting 12 15.0
2020-Jan-27 09:10 343 6 gusting 11 15.0
2020-Jan-27 09:05 332 6 gusting 10 15.0
2020-Jan-27 09:02 333 6 gusting 10 15.0
2020-Jan-27 08:55 317 6 gusting 12 15.0
2020-Jan-27 08:50 342 6 gusting 13 14.4
2020-Jan-27 08:47 344 8 gusting 12 14.4
2020-Jan-27 08:40 344 7 gusting 12 14.4
2020-Jan-27 08:35 327 8 gusting 12 14.4
2020-Jan-27 08:32 340 6 gusting 12 14.4
2020-Jan-27 08:25 331 6 gusting 13 14.4
2020-Jan-27 08:17 342 10 gusting 14 14.4
2020-Jan-27 08:10 324 6 gusting 13 14.4
2020-Jan-27 08:05 347 6 gusting 13 14.4
2020-Jan-27 08:01 323 6 gusting 13 14.4
2020-Jan-27 07:55 336 7 gusting 13 13.9
2020-Jan-27 07:51 005 6 gusting 13 13.9
2020-Jan-27 07:47 324 6 gusting 14 13.9
2020-Jan-27 07:41 298 8 gusting 14 13.9
2020-Jan-27 07:35 342 6 gusting 13 13.9
2020-Jan-27 07:33 328 7 gusting 13 13.3
2020-Jan-27 07:25 351 7 gusting 13 13.3
2020-Jan-27 07:17 324 7 gusting 12 13.3
2020-Jan-27 07:10 315 7 gusting 12 13.3
2020-Jan-27 07:06 321 6 gusting 13 13.3
2020-Jan-27 07:02 340 7 gusting 13 12.8
2020-Jan-27 06:55 333 6 gusting 13 12.8
2020-Jan-27 06:50 336 6 gusting 10 12.8
2020-Jan-27 06:46 333 4 gusting 11 12.8
2020-Jan-27 06:40 321 6 gusting 11 12.8
2020-Jan-27 06:35 303 6 gusting 11 12.8
2020-Jan-27 06:31 328 5 gusting 11 12.2
2020-Jan-27 06:25 345 7 gusting 11 12.2
2020-Jan-27 06:16 327 6 gusting 11 12.2
2020-Jan-27 06:10 321 5 gusting 9 12.2
2020-Jan-27 06:05 319 3 gusting 9 12.8
2020-Jan-27 05:55 327 4 gusting 8 12.2
2020-Jan-27 05:50 333 6 gusting 9 12.2
2020-Jan-27 05:45 325 5 gusting 11 12.2
2020-Jan-27 05:40 346 6 gusting 9 12.2
2020-Jan-27 05:30 329 6 gusting 9 12.2
2020-Jan-27 05:17 323 5 gusting 8 12.8
2020-Jan-27 05:11 311 5 gusting 8 12.2
2020-Jan-27 05:05 325 5 gusting 8 12.2
2020-Jan-27 05:01 325 4 gusting 7 12.2
2020-Jan-27 04:50 324 2 gusting 11 12.8
2020-Jan-27 04:47 324 6 gusting 11 12.2
2020-Jan-27 04:40 320 5 gusting 10 12.2
2020-Jan-27 04:35 331 6 gusting 9 12.2
2020-Jan-27 04:31 347 5 gusting 8 12.8
2020-Jan-27 04:25 321 5 gusting 9 12.8
2020-Jan-27 04:16 325 6 gusting 9 12.8
2020-Jan-27 04:10 340 6 gusting 10 12.8
2020-Jan-27 04:05 309 6 gusting 10 12.8
2020-Jan-27 04:01 319 6 gusting 10 12.8
2020-Jan-27 03:56 321 6 gusting 9 12.8
2020-Jan-27 03:50 336 6 gusting 10 12.8
2020-Jan-27 03:45 329 5 gusting 10 12.8
2020-Jan-27 03:40 318 6 gusting 11 12.8
2020-Jan-27 03:35 340 6 gusting 10 12.8
2020-Jan-27 03:30 309 6 gusting 9 12.8
2020-Jan-27 03:18 319 6 gusting 10 12.8
2020-Jan-27 03:10 313 5 gusting 10 12.8
2020-Jan-27 03:05 330 6 gusting 10 12.8
2020-Jan-27 02:55 329 5 gusting 10 12.8
2020-Jan-27 02:50 330 6 gusting 9 12.8
2020-Jan-27 02:47 320 3 gusting 7 12.8
2020-Jan-27 02:40 318 4 gusting 7 12.8
2020-Jan-27 02:35 323 5 gusting 8 12.8
2020-Jan-27 02:25 333 4 gusting 8 12.8
2020-Jan-27 02:16 323 4 gusting 8 12.8
2020-Jan-27 02:10 318 3 gusting 7 12.8
2020-Jan-27 02:05 329 4 gusting 6 12.8
2020-Jan-27 02:01 316 4 gusting 7 12.8
2020-Jan-27 01:55 311 4 gusting 7 12.8
2020-Jan-27 01:50 321 4 gusting 7 12.8
2020-Jan-27 01:40 315 5 gusting 8 12.8
2020-Jan-27 01:30 315 4 gusting 7 12.8
2020-Jan-27 01:25 325 4 gusting 7 12.8
2020-Jan-27 01:17 315 3 gusting 5 12.8
2020-Jan-27 01:11 319 3 gusting 5 13.3
2020-Jan-27 01:05 322 3 gusting 6 13.3
2020-Jan-27 01:01 327 3 gusting 7 13.3
2020-Jan-27 00:56 323 3 gusting 7 13.3
2020-Jan-27 00:51 309 3 gusting 7 13.3
2020-Jan-27 00:41 317 4 gusting 7 13.3
2020-Jan-27 00:35 321 3 gusting 6 13.3
2020-Jan-27 00:31 323 1 gusting 6 13.9
2020-Jan-27 00:25 323 3 gusting 6 13.9
2020-Jan-27 00:16 321 4 gusting 7 13.9
2020-Jan-27 00:05 329 3 gusting 9 13.9
2020-Jan-27 00:01 336 6 gusting 9 13.9
2020-Jan-26 23:55 317 4 gusting 8 13.9
2020-Jan-26 23:50 323 4 gusting 9 13.9
2020-Jan-26 23:40 308 4 gusting 10 13.9
2020-Jan-26 23:35 311 2 gusting 9 13.9
2020-Jan-26 23:25 315 3 gusting 6 13.9
2020-Jan-26 23:15 309 3 gusting 7 13.9
2020-Jan-26 23:10 275 1 gusting 7 13.9
2020-Jan-26 23:02 297 2 gusting 4 13.9
2020-Jan-26 22:55 288 1 gusting 6 13.9
2020-Jan-26 22:51 290 1 gusting 6 13.9
2020-Jan-26 22:46 297 2 gusting 6 13.9
2020-Jan-26 22:40 313 3 gusting 6 13.9
2020-Jan-26 22:35 321 2 gusting 6 13.9
2020-Jan-26 22:31 298 3 gusting 6 13.9
2020-Jan-26 22:25 321 3 gusting 4 13.9
2020-Jan-26 22:20 327 2 gusting 4 13.9
2020-Jan-26 22:10 281 13.9
2020-Jan-26 22:05 280 13.9
2020-Jan-26 22:02 280 13.9